Date String (YYYY-MM-DD hh:mm:ss) UTC,Instrument flags,Ambient pressure (hPa),Sample flow (lpm),Bypass flow (lpm),Sample temperature (°C),Ambient temperature (°C),ASC tube jacket temperature (°C),LED temperature (°C),Box temperature (°C),Sample RH (%),Span deviation,Mass concentration (μg/m³),Mass concentration (μg/m³),Mass concentration (μg/m³)
DateTimeUTC,F1_M11,P_M11,Q1_M11,Q2_M11,T1_M11,T2_M11,T3_M11,T4_M11,T5_M11,U1_M11,ZSPAN_M11,X0_M11,X2_M11,X1_M11
2023-04-22 10:00:00,,0834.1,4.99,0.00,22.9,21.3,00.0,31.3,24.3,15.2,0000.0,0007.50,0004.45,0003.85
2023-04-22 10:01:00,,0834.1,5.00,0.00,22.8,21.2,00.0,31.3,24.3,15.3,0000.0,0007.49,0004.47,0003.88
2023-04-22 10:02:00,,0834.1,5.01,0.00,22.8,21.1,00.0,31.3,24.2,15.3,0000.0,0007.38,0004.46,0003.90
2023-04-22 10:03:00,,0834.1,4.99,0.00,22.8,21.1,00.0,31.3,24.2,15.3,0000.0,0007.36,0004.47,0003.92
2023-04-22 10:04:00,,0834.1,5.00,0.00,22.7,21.0,00.0,31.3,24.2,15.3,0000.0,0007.22,0004.45,0003.93
2023-04-22 10:05:00,,0834.1,5.01,0.00,22.8,21.3,00.0,31.2,24.3,15.3,0000.0,0007.38,0004.48,0003.95
2023-04-22 10:06:00,,0834.1,5.00,0.00,22.9,22.2,00.0,31.2,24.7,15.2,0000.0,0007.46,0004.49,0003.98
2023-04-22 10:07:00,,0834.0,4.99,0.00,23.0,23.1,00.0,31.2,25.0,15.0,0000.0,0007.49,0004.53,0004.01
2023-04-22 10:08:00,,0834.1,5.00,0.00,23.1,23.2,00.0,31.2,25.0,14.9,0000.0,0007.63,0004.60,0004.05
2023-04-22 10:09:00,,0834.0,5.00,0.00,23.1,22.9,00.0,31.3,24.8,14.9,0000.0,0007.66,0004.61,0004.07
2023-04-22 10:10:00,,0834.0,5.00,0.00,23.1,22.6,00.0,31.3,24.7,14.9,0000.0,0007.68,0004.63,0004.09
2023-04-22 10:11:00,,0834.0,5.00,0.00,23.1,22.3,00.0,31.4,24.6,14.9,0000.0,0007.68,0004.65,0004.12
2023-04-22 10:12:00,,0834.1,4.99,0.00,23.0,22.1,00.0,31.4,24.6,14.9,0000.0,0007.72,0004.67,0004.15
2023-04-22 10:13:00,,0834.1,5.00,0.00,23.0,21.9,00.0,31.4,24.6,15.0,0000.0,0007.96,0004.72,0004.17
2023-04-22 10:14:00,,0834.1,5.00,0.00,23.0,21.7,00.0,31.4,24.5,15.0,0000.0,0008.07,0004.78,0004.20
2023-04-22 10:15:00,,0834.1,4.99,0.00,23.0,21.6,00.0,31.4,24.5,15.0,0000.0,0008.12,0004.85,0004.23
2023-04-22 10:16:00,,0834.1,5.01,0.00,22.9,21.5,00.0,31.4,24.4,15.0,0000.0,0008.13,0004.91,0004.26
2023-04-22 10:17:00,,0834.1,5.01,0.00,22.9,21.4,00.0,31.4,24.4,15.1,0000.0,0008.08,0004.95,0004.28
2023-04-22 10:18:00,,0834.1,4.99,0.00,22.9,21.3,00.0,31.4,24.3,15.1,0000.0,0008.23,0004.98,0004.29
2023-04-22 10:19:00,,0834.1,5.01,0.00,22.9,21.3,00.0,31.3,24.3,15.1,0000.0,0008.29,0004.97,0004.29
2023-04-22 10:20:00,,0834.1,5.01,0.00,22.8,21.3,00.0,31.3,24.3,15.2,0000.0,0008.62,0005.01,0004.32
2023-04-22 10:21:00,,0834.1,5.01,0.00,22.8,21.2,00.0,31.3,24.3,15.2,0000.0,0008.74,0005.03,0004.33
2023-04-22 10:22:00,,0834.1,5.00,0.00,22.8,21.2,00.0,31.3,24.2,15.2,0000.0,0009.25,0005.06,0004.33
2023-04-22 10:23:00,,0834.1,5.01,0.00,22.8,21.2,00.0,31.3,24.2,15.2,0000.0,0009.31,0005.09,0004.35
2023-04-22 10:24:00,,0834.1,5.00,0.00,22.8,21.1,00.0,31.3,24.2,15.2,0000.0,0009.12,0005.10,0004.38
2023-04-22 10:25:00,,0834.2,5.00,0.00,22.7,21.1,00.0,31.3,24.2,15.1,0000.0,0009.02,0005.10,0004.40
2023-04-22 10:26:00,,0834.2,5.00,0.00,22.8,21.4,00.0,31.2,24.4,15.1,0000.0,0008.90,0005.07,0004.42
2023-04-22 10:27:00,,0834.2,5.01,0.00,22.9,22.3,00.0,31.1,24.8,15.0,0000.0,0009.24,0005.06,0004.45
2023-04-22 10:28:00,,0834.4,5.00,0.00,23.0,23.2,00.0,31.1,25.0,14.9,0000.0,0009.52,0005.09,0004.48
2023-04-22 10:29:00,,0834.2,5.00,0.00,23.1,23.1,00.0,31.2,24.9,14.8,0000.0,0009.56,0005.13,0004.52
2023-04-22 10:30:00,,0834.2,4.99,0.00,23.1,22.8,00.0,31.3,24.8,14.8,0000.0,0009.50,0005.14,0004.55
2023-04-22 10:31:00,,0834.2,5.00,0.00,23.1,22.5,00.0,31.3,24.7,14.8,0000.0,0009.14,0005.13,0004.58
2023-04-22 10:32:00,,0834.2,5.00,0.00,23.0,22.3,00.0,31.3,24.6,14.9,0000.0,0009.51,0005.15,0004.60
2023-04-22 10:33:00,,0834.1,5.00,0.00,23.0,22.1,00.0,31.4,24.6,14.9,0000.0,0009.04,0005.18,0004.64
2023-04-22 10:34:00,,0834.1,5.00,0.00,23.0,21.9,00.0,31.4,24.5,14.9,0000.0,0008.98,0005.17,0004.63
2023-04-22 10:35:00,,0834.1,5.00,0.00,23.0,21.8,00.0,31.4,24.5,14.9,0000.0,0009.00,0005.17,0004.63
2023-04-22 10:36:00,,0834.1,5.00,0.00,22.9,21.6,00.0,31.4,24.5,14.9,0000.0,0009.05,0005.16,0004.63
2023-04-22 10:37:00,,0834.1,4.99,0.00,22.9,21.5,00.0,31.4,24.4,14.9,0000.0,0009.11,0005.17,0004.63
2023-04-22 10:38:00,,0834.1,5.00,0.00,22.9,21.4,00.0,31.3,24.4,14.8,0000.0,0008.83,0005.18,0004.61
2023-04-22 10:39:00,,0834.1,4.99,0.00,22.9,21.3,00.0,31.3,24.3,14.9,0000.0,0008.63,0005.17,0004.59
2023-04-22 10:40:00,,0834.2,5.00,0.00,22.9,21.3,00.0,31.3,24.3,14.9,0000.0,0008.99,0005.14,0004.58
2023-04-22 10:41:00,,0834.1,5.00,0.00,22.8,21.2,00.0,31.3,24.3,14.8,0000.0,0009.27,0005.13,0004.57
2023-04-22 10:42:00,,0834.1,5.00,0.00,22.8,21.2,00.0,31.3,24.2,14.8,0000.0,0009.41,0005.12,0004.56
2023-04-22 10:43:00,,0834.1,5.01,0.00,22.8,21.1,00.0,31.3,24.2,14.8,0000.0,0009.33,0005.08,0004.55
2023-04-22 10:44:00,,0834.1,4.99,0.00,22.8,21.1,00.0,31.3,24.2,14.8,0000.0,0009.25,0005.03,0004.54
2023-04-22 10:45:00,,0834.0,5.00,0.00,22.8,21.0,00.0,31.3,24.2,14.9,0000.0,0009.58,0005.06,0004.54
2023-04-22 10:46:00,,0834.0,5.00,0.00,22.7,21.1,00.0,31.2,24.2,14.9,0000.0,0010.08,0005.06,0004.54
2023-04-22 10:47:00,,0834.0,5.00,0.00,22.7,21.1,00.0,31.2,24.2,14.9,0000.0,0010.66,0005.07,0004.54
2023-04-22 10:48:00,,0834.0,5.00,0.00,22.7,21.0,00.0,31.2,24.2,14.9,0000.0,0010.82,0005.08,0004.56
2023-04-22 10:49:00,,0834.1,5.01,0.00,22.7,21.1,00.0,31.2,24.2,15.0,0000.0,0010.90,0005.06,0004.57
2023-04-22 10:50:00,,0834.1,5.02,0.00,22.8,21.9,00.0,31.1,24.6,15.0,0000.0,0010.90,0005.05,0004.57
2023-04-22 10:51:00,,0834.1,5.00,0.00,22.9,22.9,00.0,31.1,24.9,14.9,0000.0,0010.89,0005.06,0004.59
2023-04-22 10:52:00,,0834.1,5.00,0.00,23.0,23.3,00.0,31.2,24.9,14.8,0000.0,0010.64,0005.06,0004.60
2023-04-22 10:53:00,,0834.1,4.99,0.00,23.0,23.0,00.0,31.2,24.7,14.8,0000.0,0010.52,0005.09,0004.64
2023-04-22 10:54:00,,0834.1,4.99,0.00,23.0,22.6,00.0,31.3,24.6,14.8,0000.0,0010.17,0005.15,0004.69
2023-04-22 10:55:00,,0834.1,5.01,0.00,23.0,22.3,00.0,31.3,24.5,14.8,0000.0,0010.20,0005.20,0004.71
2023-04-22 10:56:00,,0834.0,5.01,0.00,22.9,21.9,00.0,31.3,24.4,14.8,0000.0,0010.13,0005.20,0004.72
2023-04-22 10:57:00,,0834.0,5.00,0.00,22.9,21.7,00.0,31.3,24.4,14.9,0000.0,0009.93,0005.26,0004.76
2023-04-22 10:58:00,,0834.0,5.00,0.00,22.8,21.4,00.0,31.3,24.3,14.9,0000.0,0009.18,0005.31,0004.79
2023-04-22 10:59:00,,0834.0,4.99,0.00,22.8,21.3,00.0,31.3,24.3,14.9,0000.0,0009.19,0005.33,0004.79
